Location: Vienna
(48.2082°N, 16.3738°E)
Time: 19:47:20
(UTC+01:00)

ISS - Pass Details

Date: 27 November 2019
Orbit: 411 x 421 km, 51.6° (Epoch: 07 December)

Event Time Altitude Azimuth Distance (km) Brightness Sun altitude
Rises 17:37:02 0° 248° (WSW) 2,349 1.9 -14.8°
Reaches altitude 10° 17:39:07 10° 248° (WSW) 1,490 0.4 -15.1°
Maximum altitude 17:42:28 86° 338° (NNW) 424 -3.8 -15.7°
Enters shadow 17:43:38 38° 65° (ENE) 651 -3.3 -15.9°
